DW0067 Weather Reports


time (UTC)temp
F
wind
direction
speed
knots
gust
knots
rain 1hr
in
rain 24hr
in
rain mn
in
humidity
%
barometer
mb
20260502160204 57 248 0.0 0.0 0.09 0.11 0.11 80 1010.3
20260502151704 58 248 0.0 0.0 0.06 0.06 0.06 78 1010.9
20260502151204 59 248 0.0 0.0 0.06 0.06 0.06 78 1010.9
20260502150705 59 248 0.0 0.0 0.03 0.03 0.03 77 1010.9
20260502150204 60 248 0.0 0.0 0.03 0.03 0.03 76 1010.9
20260502130704 67 248 0.0 0.0 0.00 0.00 0.00 55 1011.4
20260502130204 67 248 0.0 0.0 0.00 0.00 0.00 57 1011.4
20260502123704 66 248 0.0 0.0 0.00 0.00 0.00 58 1011.9
20260502123203 66 248 0.0 0.0 0.00 0.00 0.00 58 1011.9
20260502122703 66 248 0.0 0.0 0.00 0.00 0.00 59 1011.9
20260502122204 66 248 0.0 0.0 0.00 0.00 0.00 58 1011.9
20260502121704 66 248 0.0 0.0 0.00 0.00 0.00 59 1012.1
20260502121204 66 248 0.0 0.0 0.00 0.00 0.00 59 1012.1
20260502120704 66 248 0.0 0.0 0.00 0.00 0.00 59 1012.1
20260502120203 66 248 0.0 0.0 0.00 0.00 0.00 60 1012.1
20260502115204 66 248 0.0 0.0 0.00 0.00 0.00 61 1012.5
20260502114704 66 248 0.0 0.0 0.00 0.00 0.00 60 1012.5
20260502114204 66 248 0.0 0.0 0.00 0.00 0.00 60 1012.5
20260502113704 65 248 0.0 0.0 0.00 0.00 0.00 63 1012.6
20260502113204 65 248 0.0 0.0 0.00 0.00 0.00 62 1012.6
20260502112704 65 248 0.0 0.0 0.00 0.00 0.00 63 1012.6
20260502112204 63 248 0.0 0.0 0.00 0.00 0.00 64 1012.6
20260502111704 63 248 0.0 0.0 0.00 0.00 0.00 64 1012.9
20260502111204 63 248 0.0 0.0 0.00 0.00 0.00 64 1012.9
20260502110704 63 248 0.0 0.0 0.00 0.00 0.00 62 1012.9
20260502110204 63 248 0.0 0.0 0.00 0.00 0.00 64 1012.9
20260502105703 63 248 0.0 0.0 0.00 0.00 0.00 64 1013.3
20260502104203 63 248 0.0 0.0 0.00 0.00 0.00 66 1013.3
20260502103703 63 248 0.0 0.0 0.00 0.00 0.00 66 1013.7
20260502103204 62 248 0.0 0.0 0.00 0.00 0.00 68 1013.7
20260502102704 62 248 0.0 0.0 0.00 0.00 0.00 66 1013.7
20260502102204 62 248 0.0 0.0 0.00 0.00 0.00 68 1013.7
20260502101704 62 248 0.0 0.0 0.00 0.00 0.00 69 1013.8
20260502101204 61 248 0.0 0.0 0.00 0.00 0.00 71 1013.8
20260502100204 61 248 0.0 0.0 0.00 0.00 0.00 72 1013.8
20260502091204 57 248 0.0 0.0 0.00 0.00 0.00 78 1015.1
20260502090705 57 248 0.0 0.0 0.00 0.00 0.00 80 1015.1
20260502090204 56 248 0.0 0.0 0.00 0.00 0.00 80 1015.1
20260502071204 47 248 0.0 0.0 0.00 0.00 0.00 79 1017.6
20260502070704 47 248 0.0 0.0 0.00 0.00 0.00 79 1017.6
20260502070204 46 248 0.0 0.0 0.00 0.00 0.00 79 1017.6
20260502065704 46 248 0.0 0.0 0.00 0.00 0.00 79 1017.8
20260502065204 46 248 0.0 0.0 0.00 0.00 0.00 80 1017.8
20260502064204 46 248 0.0 0.0 0.00 0.00 0.00 80 1017.8
20260502063704 46 248 0.0 0.0 0.00 0.00 0.00 80 1018.1
20260502063204 45 248 0.0 0.0 0.00 0.00 0.00 80 1018.1
20260502062705 45 248 0.0 0.0 0.00 0.00 0.00 80 1018.1
20260502062204 45 248 0.0 0.0 0.00 0.00 0.00 80 1018.1
20260502061704 45 248 0.0 0.0 0.00 0.00 0.00 80 1018.1
20260502061204 45 248 0.0 0.0 0.00 0.00 0.00 81 1018.1
20260502060703 45 248 0.0 0.0 0.00 0.00 0.00 81 1018.1
20260502060204 45 248 0.0 0.0 0.00 0.00 0.00 81 1018.1
20260502055703 44 248 0.0 0.0 0.00 0.00 0.00 81 1018.1
20260502055204 44 248 0.0 0.0 0.00 0.00 0.00 81 1018.1
20260502054704 44 248 0.0 0.0 0.00 0.00 0.00 81 1018.1
20260502054204 44 248 0.0 0.0 0.00 0.00 0.00 81 1018.1
20260502053204 44 248 0.0 0.0 0.00 0.00 0.00 82 1018.1
20260502052704 44 248 0.0 0.0 0.00 0.00 0.00 82 1018.1
20260502052205 43 248 0.0 0.0 0.00 0.00 0.00 82 1018.1
20260502051203 43 248 0.0 0.0 0.00 0.00 0.00 82 1018.0
20260502050704 43 248 0.0 0.0 0.00 0.00 0.00 82 1018.0
20260502050204 43 248 0.0 0.0 0.00 0.00 0.00 82 1018.0
20260502045705 43 248 0.0 0.0 0.00 0.00 0.00 82 1018.1
20260502045204 43 248 0.0 0.0 0.00 0.00 0.00 82 1018.1
20260502044704 43 248 0.0 0.0 0.00 0.00 0.00 82 1018.1
20260502044204 43 248 0.0 0.0 0.00 0.00 0.00 82 1018.1
20260502043703 43 248 0.0 0.0 0.00 0.00 0.00 82 1018.1
20260502043204 43 248 0.0 0.0 0.00 0.00 0.00 82 1018.1
20260502042704 43 248 0.0 0.0 0.00 0.00 0.00 82 1018.1
20260502042203 43 248 0.0 0.0 0.00 0.00 0.00 82 1018.1
20260502041704 43 248 0.0 0.0 0.00 0.00 0.00 82 1018.1
20260502040704 43 248 0.0 0.0 0.00 0.00 0.00 82 1018.1
20260502040204 43 248 0.0 0.0 0.00 0.00 0.00 82 1018.1
20260502035703 43 248 0.0 0.0 0.00 0.00 0.00 82 1018.3
20260502035204 43 248 0.0 0.0 0.00 0.00 0.00 82 1018.3
20260502034705 43 248 0.0 0.0 0.00 0.00 0.00 82 1018.3
20260502034205 43 248 0.0 0.0 0.00 0.00 0.00 82 1018.3
20260502033704 44 248 0.0 0.0 0.00 0.00 0.00 82 1018.4
20260502033204 44 248 0.0 0.0 0.00 0.00 0.00 82 1018.4
20260502032704 44 248 0.0 0.0 0.00 0.00 0.00 82 1018.4
20260502031704 44 248 0.0 0.0 0.00 0.00 0.00 82 1018.4
20260502031203 44 248 0.0 0.0 0.00 0.00 0.00 82 1018.4
20260502030704 44 248 0.0 0.0 0.00 0.00 0.00 82 1018.4
20260502030204 44 248 0.0 0.0 0.00 0.00 0.00 82 1018.4
20260502025204 44 248 0.0 0.0 0.00 0.00 0.00 82 1018.3
20260502024703 44 248 0.0 0.0 0.00 0.00 0.00 82 1018.3
20260502024204 44 248 0.0 0.0 0.00 0.00 0.00 82 1018.3
20260502023704 44 248 0.0 0.0 0.00 0.00 0.00 82 1018.3
20260502023204 44 248 0.0 0.0 0.00 0.00 0.00 82 1018.3
20260502022704 44 248 0.0 0.0 0.00 0.00 0.00 82 1018.3
20260502022203 45 248 0.0 0.0 0.00 0.00 0.00 82 1018.3
20260502021704 45 248 0.0 0.0 0.00 0.00 0.00 82 1018.4
20260502021203 45 248 0.0 0.0 0.00 0.00 0.00 82 1018.4
20260502020704 45 248 0.0 0.0 0.00 0.00 0.00 82 1018.4
20260502020204 45 248 0.0 0.0 0.00 0.00 0.00 82 1018.4
20260502015204 45 248 0.0 0.0 0.00 0.00 0.00 82 1018.5
20260502014704 45 248 0.0 0.0 0.00 0.00 0.00 82 1018.5
20260502014205 45 248 0.0 0.0 0.00 0.00 0.00 82 1018.5
20260502013705 45 248 0.0 0.0 0.00 0.00 0.00 82 1018.3
20260502013204 46 248 0.0 0.0 0.00 0.00 0.00 82 1018.3
20260502012703 46 248 0.0 0.0 0.00 0.00 0.00 82 1018.3
20260502011703 46 248 0.0 0.0 0.00 0.00 0.00 82 1018.3
20260502011204 47 248 0.0 0.0 0.00 0.00 0.00 82 1018.3
20260502010704 47 248 0.0 0.0 0.00 0.00 0.00 82 1018.3
20260502010204 47 248 0.0 0.0 0.00 0.00 0.00 82 1018.3
20260502005704 47 248 0.0 0.0 0.00 0.00 0.00 82 1018.3
20260502004704 48 248 0.0 0.0 0.00 0.00 0.00 82 1018.3
20260502004204 48 248 0.0 0.0 0.00 0.00 0.00 82 1018.3
20260502003704 48 248 0.0 0.0 0.00 0.00 0.00 81 1018.3
20260502003204 48 248 0.0 0.0 0.00 0.00 0.00 81 1018.3
20260502002704 49 248 0.0 0.0 0.00 0.00 0.00 81 1018.3
20260502002203 49 248 0.0 0.0 0.00 0.00 0.00 81 1018.3
20260502001704 49 248 0.0 0.0 0.00 0.00 0.00 82 1018.5
20260502001205 49 248 0.0 0.0 0.00 0.00 0.00 82 1018.5
20260502000703 49 248 0.0 0.0 0.00 0.00 0.00 82 1018.5
20260502000205 49 248 0.0 0.0 0.00 0.00 0.00 81 1018.5
20260501235204 50 248 0.0 0.0 0.00 0.00 0.00 81 1018.6
20260501234704 50 248 0.0 0.0 0.00 0.00 0.00 81 1018.6
20260501234204 50 248 0.0 0.0 0.00 0.00 0.00 81 1018.6
20260501233705 50 248 0.0 0.0 0.00 0.00 0.00 81 1018.5
20260501233204 51 248 0.0 0.0 0.00 0.00 0.00 81 1018.5
20260501232704 51 248 0.0 0.0 0.00 0.00 0.00 81 1018.5
20260501232204 51 248 0.0 0.0 0.00 0.00 0.00 81 1018.5
20260501231704 51 248 0.0 0.0 0.00 0.00 0.00 81 1018.5
20260501231204 51 248 0.0 0.0 0.00 0.00 0.00 81 1018.5
20260501225704 52 248 0.0 0.0 0.00 0.00 0.00 81 1018.3
20260501224704 53 248 0.0 0.0 0.00 0.00 0.00 81 1018.3
20260501224204 53 248 0.0 0.0 0.00 0.00 0.00 81 1018.3
20260501223704 53 248 0.0 0.0 0.00 0.00 0.00 81 1018.1
20260501223204 53 248 0.0 0.0 0.00 0.00 0.00 81 1018.1
20260501222204 53 248 0.0 0.0 0.00 0.00 0.00 81 1018.1
20260501221704 53 248 0.0 0.0 0.00 0.00 0.00 81 1018.4
20260501221204 53 248 0.0 0.0 0.00 0.00 0.00 81 1018.4
20260501220704 53 248 0.0 0.0 0.00 0.00 0.00 81 1018.4
20260501215704 53 248 0.0 0.0 0.00 0.00 0.00 81 1018.1
20260501215204 53 248 0.0 0.0 0.00 0.00 0.00 81 1018.1
20260501214205 53 248 0.0 0.0 0.00 0.00 0.00 81 1018.1
20260501213704 54 248 0.0 0.0 0.00 0.00 0.00 81 1017.9
20260501212704 54 248 0.0 0.0 0.00 0.00 0.00 81 1017.9
20260501212204 54 248 0.0 0.0 0.00 0.00 0.00 81 1017.9
20260501211204 54 248 0.0 0.0 0.00 0.00 0.00 80 1017.8
20260501210705 54 248 0.0 0.0 0.00 0.00 0.00 80 1017.8
20260501210204 55 248 0.0 0.0 0.00 0.00 0.00 79 1017.8
20260501205705 55 248 0.0 0.0 0.00 0.00 0.00 79 1017.6
20260501204704 55 248 0.0 0.0 0.00 0.00 0.00 78 1017.6
20260501204205 56 248 0.0 0.0 0.00 0.00 0.00 78 1017.6
20260501203705 56 248 0.0 0.0 0.00 0.00 0.00 78 1017.3
20260501203204 56 248 0.0 0.0 0.00 0.00 0.00 78 1017.3
20260501202704 57 248 0.0 0.0 0.00 0.00 0.00 78 1017.3
20260501202204 58 248 0.0 0.0 0.00 0.00 0.00 77 1017.3
20260501201704 58 248 0.0 0.0 0.00 0.00 0.00 76 1016.9
20260501201204 59 248 0.0 0.0 0.00 0.00 0.00 76 1016.9
20260501200703 59 248 0.0 0.0 0.00 0.00 0.00 76 1016.9
20260501200205 59 248 0.0 0.0 0.00 0.00 0.00 76 1016.9
20260501195704 60 248 0.0 0.0 0.00 0.00 0.00 76 1016.8
20260501195204 60 248 0.0 0.0 0.00 0.00 0.00 76 1016.8
20260501194705 60 248 0.0 0.0 0.00 0.00 0.00 75 1016.8
20260501194205 61 248 0.0 0.0 0.00 0.00 0.00 74 1016.8
20260501193704 61 248 0.0 0.0 0.00 0.00 0.00 74 1016.6
20260501193204 61 248 0.0 0.0 0.00 0.00 0.00 73 1016.6
20260501192705 61 248 0.0 0.0 0.00 0.00 0.00 73 1016.6
20260501192204 62 248 0.0 0.0 0.00 0.00 0.00 72 1016.6
20260501191704 62 248 0.0 0.0 0.00 0.00 0.00 72 1016.2
20260501190704 62 248 0.0 0.0 0.00 0.00 0.00 71 1016.2
20260501190204 62 248 0.0 0.0 0.00 0.00 0.00 70 1016.2
20260501185703 62 248 0.0 0.0 0.00 0.00 0.00 69 1016.1
20260501185205 63 248 0.0 0.0 0.00 0.00 0.00 70 1016.1
20260501184704 63 248 0.0 0.0 0.00 0.00 0.00 70 1016.1
20260501184204 63 248 0.0 0.0 0.00 0.00 0.00 71 1016.1
20260501183704 63 248 0.0 0.0 0.00 0.00 0.00 71 1015.6
20260501183204 63 248 0.0 0.0 0.00 0.00 0.00 70 1015.6
20260501182704 63 248 0.0 0.0 0.00 0.00 0.00 71 1015.6
20260501182204 63 248 0.0 0.0 0.00 0.00 0.00 70 1015.6
20260501181704 63 248 0.0 0.0 0.00 0.00 0.00 70 1015.6
20260501181204 64 248 0.0 0.0 0.00 0.00 0.00 70 1015.6
20260501180704 64 248 0.0 0.0 0.00 0.00 0.00 70 1015.6
20260501175704 64 248 0.0 0.0 0.00 0.00 0.00 70 1015.7
20260501175204 64 248 0.0 0.0 0.00 0.00 0.00 70 1015.7
20260501174706 64 248 0.0 0.0 0.00 0.00 0.00 70 1015.7
20260501174204 64 248 0.0 0.0 0.00 0.00 0.00 70 1015.7
20260501173704 64 248 0.0 0.0 0.00 0.00 0.00 69 1015.8
20260501173204 65 248 0.0 0.0 0.00 0.00 0.00 69 1015.8
20260501172704 65 248 0.0 0.0 0.00 0.00 0.00 69 1015.8
20260501171204 65 248 0.0 0.0 0.00 0.00 0.00 70 1015.9
20260501170703 65 248 0.0 0.0 0.00 0.00 0.00 69 1015.9
20260501170204 65 248 0.0 0.0 0.00 0.00 0.00 67 1015.9
20260501165204 66 248 0.0 0.0 0.00 0.00 0.00 66 1015.7
20260501164704 66 248 0.0 0.0 0.00 0.00 0.00 65 1015.7
20260501163704 66 248 0.0 0.0 0.00 0.00 0.00 63 1015.6
20260501163204 66 248 0.0 0.0 0.00 0.00 0.00 64 1015.6
20260501162704 66 248 0.0 0.0 0.00 0.00 0.00 65 1015.6
20260501162204 66 248 0.0 0.0 0.00 0.00 0.00 64 1015.6
20260501161704 66 248 0.0 0.0 0.00 0.00 0.00 64 1015.6
20260501161204 66 248 0.0 0.0 0.00 0.00 0.00 65 1015.6